Starlink 31470

operational
NORAD ID: 59569 Int'l Des: 2024-076 Owner: SPXS Country: US Constellation: starlink
LEOCIRCULAR

About Starlink 31470

Description loading...

Live Position

Loading 3D Globe...

Upcoming Passes

Altitude History

Altitude vs Time

uPlot chart will show altitude changes over time

Two-Line Element Set

1 59569U 24076F 25260.03364620 -.00000677 00000-0 -15072-4 0 9993
2 59569 43.0023 266.3133 0001631 270.9524 89.1141 15.27571961 79893
Epoch: Sep 17, 2025 • Age: 22 hours

Current Status

Altitude 484.4 km
Velocity 7.63 km/s
Sub-Earth Point 30.27°N, 42.31°W
Launch Date Apr 23, 2024
Age 1.4 years
Type internet

Technical Details

Classification Payload
Mass 730.00 kg
Dry Mass 700.00 kg
Total Mass 730.00 kg
Length 0.30 m
Diameter 4.10 m
Span 29.00 m
Shape Box + pan
Manufacturer SPXS
Bus Type Starlink V2M
Phase Status In Orbit
Owner/State SPXS/US

Large Constellations

Loading constellations...